This demonstration page uses our WeatherBlox Daily Observations layout. Learn more.

39.01783, -85.05884

Hourly Observations for January 19, 2019

Temp ( °F °C ) Dew Point ( °F °C ) Humidity (%) Winds ( mph kmh ) Pressure ( in mb ) Visibility ( mi km ) Precip ( " mm )
12:52 am 00:52 Cloudy 35 1.7 31 -0.6 85 85 ESE 10 17 30 1016 8 12.874752 0 0
1:50 am 01:50 Cloudy 36 2 30 -1 81 81 E 12 19 30 1016 10 16.09344 0 0
1:52 am 01:52 Cloudy 35 1.7 31 -0.6 85 85 E 13 20 29.94 1014 10 16.09344 0 0
2:52 am 02:52 Cloudy 36 2.2 31 -0.6 82 82 E 8 13 29.97 1015 9 14.484096 0 0
3:10 am 03:10 Cloudy 36 2.2 31 -0.6 82 82 NE 8 13 30.03 1017 9 14.484096 0 0
3:52 am 03:52 Cloudy 36 2.2 31 -0.6 82 82 NE 8 13 29.97 1015 9 14.484096 0 0
4:52 am 04:52 Cloudy 35 1.7 31 -0.6 85 85 E 12 19 29.91 1013 9 14.484096 0 0
5:52 am 05:52 Cloudy 36 2.2 31 -0.6 82 82 ENE 10 17 29.88 1012 9 14.484096 0 0
6:52 am 06:52 Cloudy with Rain 35 1.7 32 0 89 89 E 12 19 29.85 1011 4 6.437376 0.01 0.254
7:52 am 07:52 Cloudy with Heavy Rain 35 1.7 33 0.6 93 93 E 13 20 29.83 1010 2.5 4.02336 0.15 3.81
8:52 am 08:52 Cloudy with Rain 36 2.2 34 1.1 93 93 E 14 22 29.8 1009 2 3.218688 0.23 5.842
9:52 am 09:52 Cloudy with Rain 36 2.2 34 1.1 93 93 E 12 19 29.74 1007 1 1.609344 0.11 2.794
10:52 am 10:52 Cloudy with Light Rain 37 2.8 37 2.8 100 100 ENE 6 9 29.74 1007 1 1.609344 0.06 1.524
11:52 am 11:52 Cloudy with Rain 38 3.3 37 2.8 97 97 ENE 10 17 29.68 1005 0.75 1.207008 0.1 2.54
12:52 pm 12:52 Cloudy with Light Rain 39 3.9 38 3.3 96 96 E 8 13 29.62 1003 0.25 0.402336 0.08 2.032
1:52 pm 13:52 Cloudy with Light Rain 39 3.9 38 3.3 96 96 NNE 9 15 29.56 1001 0.25 0.402336 0.08 2.032
2:52 pm 14:52 Cloudy with Light Rain 38 3.3 37 2.8 97 97 NE 13 20 29.53 1000 0.25 0.402336 0.04 1.016
3:29 pm 15:29 Cloudy with Rain 37 2.8 36 2.2 96 96 NNE 14 22 29.56 1001 1.5 2.414016 0.03 0.762
3:52 pm 15:52 Cloudy with Light Rain 36 2.2 35 1.7 97 97 N 16 26 29.53 1000 1.75 2.816352 0.05 1.27
4:12 pm 16:12 Cloudy with Light Rain 36 2.2 35 1.7 97 97 NNE 23 37 29.56 1001 1.75 2.816352 0.01 0.254
4:52 pm 16:52 Cloudy with Light Rain 35 1.7 34 1.1 96 96 N 21 33 29.53 1000 1.75 2.816352 0.05 1.27
5:09 pm 17:09 Cloudy with Light Rain 35 1.7 34 1.1 96 96 NNE 18 30 29.56 1001 2 3.218688 0.03 0.762
5:52 pm 17:52 Cloudy with Light Rain 35 1.7 33 0.6 93 93 NNE 18 30 29.53 1000 2.5 4.02336 0.07 1.778
6:33 pm 18:33 Cloudy 34 1.1 33 0.6 97 97 N 18 30 29.56 1001 3 4.828032 0.01 0.254
6:52 pm 18:52 Cloudy 34 1.1 33 0.6 97 97 N 17 28 29.5 999 3 4.828032 0.01 0.254
7:37 pm 19:37 Cloudy with Light Freezing Rain 32 0 32 0 100 100 N 18 30 29.56 1001 3 4.828032 0.03 0.762
7:52 pm 19:52 Cloudy with Light Freezing Rain 32 0 31 -0.6 96 96 N 24 39 29.53 1000 3 4.828032 0.05 1.27
7:54 pm 19:54 Cloudy with Light Freezing Rain 32 0 31 -0.6 96 96 N 28 44 29.56 1001 2.5 4.02336 0.001 0.001
7:59 pm 19:59 Cloudy with Light Freezing Rain 32 0 32 0 100 100 N 23 37 29.59 1002 3 4.828032 0.01 0.254
8:38 pm 20:38 Cloudy with Freezing Rain 32 0 29 -1.7 88 88 N 25 41 29.56 1001 2.5 4.02336 0.06 1.524
8:52 pm 20:52 Cloudy with Light Freezing Rain 31 -0.6 28 -2.2 89 89 N 24 39 29.56 1001 2 3.218688 0.09 2.286
8:59 pm 20:59 Cloudy 30 -1.1 27 -2.8 88 88 N 21 33 29.59 1002 2 3.218688 0 0
9:22 pm 21:22 Cloudy with Mist and Fog 28 -2.2 25 -3.9 88 88 N 25 41 29.59 1002 2 3.218688 0 0
9:48 pm 21:48 Windy with Snow Likely 27 -3 23 -5 86 86 N 28 44 29.59 1002 1.25 2.01168 0.02 0.508
9:52 pm 21:52 Windy with Snow Likely 27 -2.8 23 -5 85 85 N 25 41 29.59 1002 1.25 2.01168 0.02 0.508
10:40 pm 22:40 Windy with Snow Likely 25 -3.9 22 -5.6 88 88 NNW 20 31 29.68 1005 0.75 1.207008 0.01 0.254
10:52 pm 22:52 Windy with Snow Likely 24 -4.4 21 -6.1 88 88 N 23 37 29.62 1003 0.5 0.804672 0.01 0.254
10:55 pm 22:55 Windy with Snow Likely 24 -4.4 21 -6.1 88 88 N 21 33 29.68 1005 0.5 0.804672 0.02 0.508
11:02 pm 23:02 Windy with Snow Likely 23 -5 20 -6.7 88 88 N 28 44 29.68 1005 0.25 0.402336 0.02 0.508
11:40 pm 23:40 Mostly Cloudy with Heavy Snow 22 -5.6 19 -7.2 89 89 N 25 41 29.71 1006 0.25 0.402336 0.05 1.27
11:52 pm 23:52 Mostly Cloudy with Heavy Snow 22 -5.6 18 -7.8 85 85 N 23 37 29.68 1005 0.25 0.402336 0.06 1.524
11:59 pm 23:59 Mostly Cloudy with Heavy Snow 21 -6.1 18 -7.8 88 88 N 26 43 29.71 1006 0.25 0.402336 0.01 0.254

Powered by AerisWeather